Weather History for Centralia, IL

Change the Weather History Date:

Sunday, October 14, 2012

  Actual Average (KSLO) Record (KSLO)
Temperature  
Mean Temperature 64 °F -  
Max Temperature 74 °F 71 °F 87 °F (1989)
Min Temperature 54 °F 45 °F 29 °F (1979)
Growing Degree Days 14 (Base 50)    
Moisture  
Dew Point 58 °F    
Average Humidity 75    
Maximum Humidity 92    
Minimum Humidity 50    
Precipitation  
Precipitation 0.25 in - - ()
Sea Level Pressure  
Sea Level Pressure 29.80 in    
Wind  
Wind Speed 16 mph (SW)    
Max Wind Speed 29 mph    
Max Gust Speed 37 mph    
Visibility 10 miles    
Events Rain    
Averages and records for this station are not official NWS values.
T = Trace of Precipitation, MM = Missing Value Source: NWS Daily Summary

Daily Weather History Graph

Daily Weather History Graph

Search for Another Location

Airport:

Trip Planner

Search our weather history database for the weather conditions in past years. The results will help you decide how hot, cold, wet, or windy it might be!

Date:

Astronomy

Oct. 14, 2012 Rise Set
Actual Time 7:04 AM CDT 6:18 PM CDT
Civil Twilight 6:38 AM CDT 6:45 PM CDT
Nautical Twilight 6:07 AM CDT 7:16 PM CDT
Astronomical Twilight 5:36 AM CDT 7:46 PM CDT
Moon 6:04 AM CDT (10/14) 5:38 PM CDT (10/14)
Length of Visible Light 12h 07m
Length of Day
11h 14m
Waning Crescent, 1% of the Moon is Illuminated
Oct 14
Waning Crescent
Oct 15
New
Oct 21
First Quarter
Oct 29
Full
Nov 6
Last Quarter

Hourly Weather History & Observations

Time (CDT) Temp. Dew Point Humidity Pressure Visibility Wind Dir Wind Speed Gust Speed Precip Events Conditions
12:15 AM 70.7 °F 60.3 °F 69% 29.84 in 10.0 mi South 12.7 mph 20.7 mph N/A   Clear
12:35 AM 70.5 °F 60.3 °F 70% 29.84 in 10.0 mi South 12.7 mph 19.6 mph N/A   Clear
12:55 AM 70.7 °F 60.4 °F 70% 29.84 in 10.0 mi South 15.0 mph 19.6 mph N/A   Clear
1:15 AM 72.0 °F 60.6 °F 67% 29.84 in 10.0 mi South 15.0 mph 26.5 mph N/A   Mostly Cloudy
1:35 AM 72.0 °F 60.4 °F 67% 29.83 in 10.0 mi South 16.1 mph 21.9 mph N/A   Overcast
1:55 AM 72.3 °F 60.4 °F 66% 29.82 in 10.0 mi South 16.1 mph 24.2 mph N/A   Overcast
2:15 AM 71.6 °F 60.8 °F 69% 29.82 in 10.0 mi South 12.7 mph 20.7 mph N/A   Overcast
2:35 AM 71.4 °F 61.3 °F 70% 29.83 in 10.0 mi South 16.1 mph 24.2 mph N/A Rain Light Rain
2:55 AM 69.4 °F 62.8 °F 79% 29.84 in 7.0 mi SSW 16.1 mph 21.9 mph 0.01 in Rain Rain
3:15 AM 68.2 °F 63.5 °F 85% 29.83 in 7.0 mi SSW 16.1 mph - 0.04 in Rain Rain
3:35 AM 67.5 °F 63.5 °F 87% 29.83 in 7.0 mi SW 6.9 mph - 0.07 in Rain Heavy Rain
3:55 AM 66.7 °F 63.7 °F 90% 29.83 in 5.0 mi SSW 6.9 mph - 0.12 in Rain Rain
4:15 AM 66.4 °F 63.7 °F 91% 29.82 in 5.0 mi SW 3.5 mph - 0.02 in Rain Light Rain
4:35 AM 66.4 °F 63.9 °F 92% 29.82 in 4.0 mi South 11.5 mph 17.3 mph 0.08 in Rain Rain
4:55 AM 66.4 °F 63.5 °F 90% 29.78 in 7.0 mi South 9.2 mph - 0.09 in Rain Light Rain
5:15 AM 66.2 °F 62.6 °F 88% 29.80 in 10.0 mi South 13.8 mph - 0.01 in Rain Light Rain
5:35 AM 65.8 °F 63.0 °F 90% 29.77 in 10.0 mi SSE 13.8 mph 19.6 mph 0.02 in   Mostly Cloudy
5:55 AM 65.3 °F 61.9 °F 89% 29.78 in 10.0 mi SSE 11.5 mph - 0.02 in Rain Light Rain
6:15 AM 65.3 °F 62.1 °F 89% 29.76 in 10.0 mi SSE 15.0 mph 20.7 mph N/A Rain Light Rain
6:35 AM 65.3 °F 62.2 °F 90% 29.76 in 10.0 mi SSE 17.3 mph 26.5 mph N/A Rain Light Rain
6:55 AM 65.7 °F 62.6 °F 90% 29.71 in 7.0 mi SSE 24.2 mph 32.2 mph 0.01 in Rain Light Rain
7:15 AM 65.3 °F 61.9 °F 89% 29.69 in 10.0 mi SSE 19.6 mph 26.5 mph N/A Rain Light Rain
7:35 AM 65.5 °F 61.7 °F 88% 29.71 in 10.0 mi SSE 16.1 mph 27.6 mph N/A   Clear
7:55 AM 65.5 °F 61.3 °F 86% 29.71 in 10.0 mi South 15.0 mph 23.0 mph N/A   Clear
8:15 AM 66.2 °F 61.7 °F 85% 29.73 in 10.0 mi South 16.1 mph 20.7 mph N/A   Clear
8:35 AM 67.1 °F 62.6 °F 85% 29.73 in 10.0 mi South 16.1 mph 26.5 mph N/A   Mostly Cloudy
8:55 AM 67.3 °F 62.6 °F 85% 29.74 in 10.0 mi South 24.2 mph 31.1 mph N/A   Overcast
9:15 AM 68.0 °F 62.1 °F 81% 29.75 in 10.0 mi SSW 19.6 mph 31.1 mph N/A   Overcast
9:35 AM 68.7 °F 61.2 °F 77% 29.75 in 10.0 mi SSW 25.3 mph 33.4 mph N/A   Overcast
9:55 AM 68.2 °F 60.1 °F 75% 29.75 in 10.0 mi SSW 28.8 mph 36.8 mph N/A   Overcast
10:15 AM 68.5 °F 59.9 °F 74% 29.75 in 10.0 mi South 21.9 mph 33.4 mph N/A   Overcast
10:35 AM 68.2 °F 59.4 °F 73% 29.75 in 10.0 mi South 20.7 mph 29.9 mph N/A   Mostly Cloudy
10:55 AM 68.2 °F 59.5 °F 74% 29.75 in 10.0 mi South 23.0 mph 29.9 mph N/A   Scattered Clouds
11:15 AM 69.8 °F 59.7 °F 70% 29.74 in 10.0 mi South 26.5 mph 34.5 mph N/A   Scattered Clouds
11:35 AM 70.2 °F 60.1 °F 70% 29.74 in 10.0 mi SSW 21.9 mph 35.7 mph N/A   Mostly Cloudy
11:55 AM 71.2 °F 59.4 °F 66% 29.74 in 10.0 mi SSW 24.2 mph 32.2 mph N/A   Mostly Cloudy
12:15 PM 72.0 °F 59.7 °F 65% 29.74 in 10.0 mi SSW 25.3 mph 33.4 mph N/A   Mostly Cloudy
12:35 PM 70.9 °F 59.4 °F 67% 29.73 in 10.0 mi SSW 16.1 mph 31.1 mph N/A   Mostly Cloudy
12:55 PM 71.1 °F 58.6 °F 65% 29.72 in 10.0 mi SSW 27.6 mph 35.7 mph N/A   Overcast
1:15 PM 72.0 °F 58.8 °F 63% 29.72 in 10.0 mi SSW 24.2 mph 31.1 mph N/A   Overcast
1:35 PM 72.7 °F 58.1 °F 60% 29.70 in 10.0 mi SSW 25.3 mph 33.4 mph N/A   Mostly Cloudy
1:55 PM 72.9 °F 58.1 °F 60% 29.70 in 10.0 mi SW 26.5 mph 34.5 mph N/A   Mostly Cloudy
2:15 PM 72.9 °F 58.1 °F 60% 29.69 in 10.0 mi SSW 23.0 mph 32.2 mph N/A   Mostly Cloudy
2:35 PM 73.8 °F 57.6 °F 57% 29.70 in 10.0 mi SW 20.7 mph 31.1 mph N/A   Mostly Cloudy
2:55 PM 73.4 °F 57.9 °F 58% 29.70 in 10.0 mi SSW 19.6 mph 25.3 mph N/A   Mostly Cloudy
3:15 PM 72.9 °F 57.4 °F 58% 29.70 in 10.0 mi SW 20.7 mph 26.5 mph N/A   Mostly Cloudy
3:35 PM 74.3 °F 57.0 °F 55% 29.71 in 10.0 mi SW 28.8 mph 35.7 mph N/A   Mostly Cloudy
3:55 PM 73.4 °F 55.0 °F 52% 29.72 in 10.0 mi WSW 24.2 mph 33.4 mph N/A   Scattered Clouds
4:15 PM 72.9 °F 53.2 °F 50% 29.74 in 10.0 mi WSW 20.7 mph 34.5 mph N/A   Clear
4:35 PM 70.9 °F 54.0 °F 55% 29.76 in 10.0 mi WSW 19.6 mph 34.5 mph N/A   Mostly Cloudy
4:55 PM 64.8 °F 57.7 °F 78% 29.78 in 10.0 mi WNW 20.7 mph 33.4 mph N/A   Overcast
5:15 PM 64.4 °F 58.1 °F 80% 29.79 in 10.0 mi West 16.1 mph 21.9 mph N/A   Overcast
5:35 PM 64.9 °F 58.6 °F 80% 29.79 in 10.0 mi West 12.7 mph 21.9 mph N/A   Mostly Cloudy
5:55 PM 64.6 °F 57.9 °F 79% 29.80 in 10.0 mi West 18.4 mph 24.2 mph N/A   Scattered Clouds
6:15 PM 64.8 °F 57.2 °F 76% 29.81 in 10.0 mi West 13.8 mph 20.7 mph N/A   Mostly Cloudy
6:35 PM 64.6 °F 56.5 °F 75% 29.83 in 10.0 mi West 17.3 mph 21.9 mph N/A   Overcast
6:55 PM 64.4 °F 54.7 °F 71% 29.84 in 10.0 mi West 16.1 mph 27.6 mph N/A   Mostly Cloudy
7:15 PM 63.7 °F 54.0 °F 71% 29.85 in 10.0 mi West 11.5 mph - N/A   Mostly Cloudy
7:35 PM 63.5 °F 52.9 °F 68% 29.86 in 10.0 mi West 13.8 mph 20.7 mph N/A   Mostly Cloudy
7:55 PM 62.6 °F 52.3 °F 69% 29.87 in 10.0 mi West 9.2 mph - N/A   Scattered Clouds
8:15 PM 61.7 °F 52.3 °F 71% 29.88 in 10.0 mi West 10.4 mph - N/A   Clear
8:35 PM 61.0 °F 52.7 °F 74% 29.89 in 10.0 mi West 8.1 mph - N/A   Scattered Clouds
8:55 PM 61.0 °F 52.7 °F 74% 29.89 in 10.0 mi West 8.1 mph - N/A   Scattered Clouds
9:15 PM 60.8 °F 52.5 °F 74% 29.90 in 10.0 mi West 8.1 mph - N/A   Scattered Clouds
9:35 PM 60.3 °F 52.3 °F 75% 29.90 in 10.0 mi West 8.1 mph - N/A   Scattered Clouds
9:55 PM 59.2 °F 52.7 °F 79% 29.92 in 10.0 mi NW 4.6 mph - N/A   Scattered Clouds
10:15 PM 59.9 °F 52.9 °F 78% 29.93 in 10.0 mi NNW 9.2 mph - N/A   Mostly Cloudy
10:35 PM 59.2 °F 51.8 °F 77% 29.93 in 10.0 mi NW 9.2 mph - N/A   Mostly Cloudy
10:55 PM 57.4 °F 51.3 °F 80% 29.93 in 10.0 mi NNW 8.1 mph - N/A   Scattered Clouds
11:15 PM 56.8 °F 50.9 °F 80% 29.94 in 10.0 mi NW 6.9 mph - N/A   Clear
11:35 PM 55.6 °F 50.4 °F 83% 29.94 in 10.0 mi NW 4.6 mph - N/A   Clear
11:55 PM 54.9 °F 50.0 °F 84% 29.93 in 10.0 mi West 4.6 mph - N/A   Mostly Cloudy